When you browse on this site, cookies collect data to enhance your experience and personalize the content and advertising you see.
Visit our Privacy Policy to learn more. By continuing to use the site, you agree to this use of cookies and data.
  • In Slovakia
  • List of Countries
  • For 7 days
  • Water Temperature
  • Weather Map
  • Weather Widgets
  • user-avatar
    Login

    Hourly Weather Vitebsk

    Today, 23 August, Friday

    Time Temperature Precipitation Wind Pressure Humidity
    00:00 +13°C° 0 mm 1 mps 756 mmHg 86%
    01:00 +12°C° 0 mm 1 mps 756 mmHg 87%
    02:00 +11°C° 0 mm 0 mps 757 mmHg 87%
    03:00 +11°C° 0 mm 0 mps 757 mmHg 88%
    04:00 +11°C° 0 mm 0 mps 757 mmHg 88%
    05:00 +10°C° 0 mm 0 mps 757 mmHg 89%
    06:00 +12°C° 0 mm 0 mps 757 mmHg 84%
    07:00 +14°C° 0 mm 0 mps 757 mmHg 79%
    08:00 +18°C° 0 mm 1 mps 758 mmHg 73%
    09:00 +19°C° 0 mm 1 mps 758 mmHg 69%
    10:00 +20°C° 0 mm 1 mps 757 mmHg 65%
    11:00 +22°C° 0 mm 1 mps 757 mmHg 61%
    12:00 +22°C° 0 mm 1 mps 757 mmHg 59%
    13:00 +22°C° 0 mm 1 mps 757 mmHg 57%
    14:00 +23°C° 0 mm 1 mps 757 mmHg 55%
    15:00 +22°C° 0 mm 1 mps 756 mmHg 58%
    16:00 +22°C° 0 mm 1 mps 756 mmHg 61%
    17:00 +22°C° 0 mm 1 mps 756 mmHg 65%
    18:00 +20°C° 0 mm 1 mps 756 mmHg 69%
    19:00 +18°C° 0 mm 1 mps 756 mmHg 74%
    20:00 +15°C° 0 mm 1 mps 756 mmHg 78%
    21:00 +15°C° 0 mm 1 mps 756 mmHg 80%
    22:00 +14°C° 0 mm 1 mps 756 mmHg 81%
    23:00 +14°C° 0 mm 1 mps 756 mmHg 83%

    Tomorrow, 24 August, Saturday

    Time Temperature Precipitation Wind Pressure Humidity
    00:00 +14°C° 0 mm 2 mps 755 mmHg 84%
    01:00 +13°C° 0 mm 2 mps 755 mmHg 85%
    02:00 +13°C° 0 mm 2 mps 755 mmHg 86%
    03:00 +13°C° 0 mm 2 mps 755 mmHg 88%
    04:00 +12°C° 0 mm 2 mps 755 mmHg 89%
    05:00 +12°C° 0 mm 2 mps 755 mmHg 90%
    06:00 +14°C° 0 mm 2 mps 755 mmHg 86%
    07:00 +15°C° 0 mm 2 mps 755 mmHg 81%
    08:00 +17°C° 0 mm 3 mps 755 mmHg 77%
    09:00 +18°C° 0 mm 3 mps 755 mmHg 72%
    10:00 +20°C° 0 mm 3 mps 755 mmHg 68%
    11:00 +21°C° 0 mm 4 mps 754 mmHg 63%
    12:00 +22°C° 0 mm 4 mps 754 mmHg 62%
    13:00 +23°C° 0 mm 4 mps 754 mmHg 60%
    14:00 +23°C° 0 mm 4 mps 754 mmHg 59%
    15:00 +24°C° 0 mm 3 mps 754 mmHg 63%
    16:00 +24°C° 0 mm 3 mps 753 mmHg 67%
    17:00 +24°C° 0 mm 3 mps 753 mmHg 71%
    18:00 +21°C° 0 mm 2 mps 753 mmHg 76%
    19:00 +19°C° 0 mm 2 mps 753 mmHg 81%
    20:00 +17°C° 0 mm 2 mps 753 mmHg 86%
    21:00 +17°C° 0 mm 2 mps 753 mmHg 89%
    22:00 +16°C° 0 mm 2 mps 753 mmHg 91%
    23:00 +16°C° 0 mm 1 mps 753 mmHg 93%

    Day after tomorrow, 25 August, Sunday

    Time Temperature Precipitation Wind Pressure Humidity
    00:00 +15°C° 0 mm 1 mps 754 mmHg 93%
    01:00 +15°C° 0 mm 1 mps 754 mmHg 94%
    02:00 +15°C° 0 mm 1 mps 754 mmHg 94%
    03:00 +14°C° 0 mm 1 mps 754 mmHg 94%
    04:00 +14°C° 0 mm 1 mps 754 mmHg 94%
    05:00 +13°C° 0 mm 1 mps 754 mmHg 95%
    06:00 +15°C° 0 mm 1 mps 754 mmHg 90%
    07:00 +16°C° 0 mm 1 mps 755 mmHg 86%
    08:00 +18°C° 0 mm 1 mps 755 mmHg 81%
    09:00 +19°C° 0 mm 2 mps 755 mmHg 76%
    10:00 +20°C° 0 mm 2 mps 755 mmHg 70%
    11:00 +21°C° 0 mm 2 mps 755 mmHg 65%
    12:00 +21°C° 0 mm 2 mps 755 mmHg 61%
    13:00 +23°C° 0 mm 2 mps 755 mmHg 58%
    14:00 +23°C° 0 mm 2 mps 755 mmHg 55%
    15:00 +23°C° 0 mm 1 mps 755 mmHg 58%
    16:00 +23°C° 0 mm 1 mps 755 mmHg 61%
    17:00 +23°C° 0 mm 1 mps 755 mmHg 64%
    18:00 +21°C° 0 mm 1 mps 755 mmHg 68%
    19:00 +18°C° 0 mm 1 mps 755 mmHg 73%
    20:00 +15°C° 0 mm 1 mps 755 mmHg 77%
    21:00 +15°C° 0 mm 1 mps 755 mmHg 79%
    22:00 +14°C° 0 mm 1 mps 755 mmHg 81%
    23:00 +13°C° 0 mm 1 mps 755 mmHg 83%

    26 August, Monday

    Time Temperature Precipitation Wind Pressure Humidity
    00:00 +13°C° 0 mm 1 mps 755 mmHg 84%
    01:00 +13°C° 0 mm 1 mps 755 mmHg 85%
    02:00 +11°C° 0 mm 0 mps 755 mmHg 86%
    03:00 +11°C° 0 mm 0 mps 755 mmHg 87%
    04:00 +11°C° 0 mm 0 mps 755 mmHg 87%
    05:00 +11°C° 0 mm 0 mps 755 mmHg 88%
    06:00 +13°C° 0 mm 0 mps 755 mmHg 83%
    07:00 +14°C° 0 mm 0 mps 755 mmHg 77%
    08:00 +16°C° 0 mm 0 mps 755 mmHg 72%
    09:00 +20°C° 0 mm 1 mps 755 mmHg 69%
    10:00 +22°C° 0 mm 1 mps 755 mmHg 65%
    11:00 +23°C° 0 mm 1 mps 755 mmHg 62%
    12:00 +23°C° 0 mm 1 mps 755 mmHg 60%
    13:00 +24°C° 0 mm 1 mps 755 mmHg 59%
    14:00 +24°C° 0 mm 1 mps 755 mmHg 58%
    15:00 +24°C° 0 mm 1 mps 754 mmHg 62%
    16:00 +24°C° 0 mm 1 mps 754 mmHg 66%
    17:00 +24°C° 0 mm 1 mps 754 mmHg 70%
    18:00 +22°C° 0 mm 1 mps 753 mmHg 75%
    19:00 +20°C° 0 mm 1 mps 753 mmHg 81%
    20:00 +18°C° 0 mm 1 mps 753 mmHg 86%
    21:00 +18°C° 0 mm 1 mps 753 mmHg 88%
    22:00 +16°C° 0 mm 1 mps 753 mmHg 89%
    23:00 +16°C° 0 mm 1 mps 753 mmHg 91%

    27 August, Tuesday

    Time Temperature Precipitation Wind Pressure Humidity
    00:00 +16°C° 0 mm 1 mps 753 mmHg 90%
    01:00 +15°C° 0 mm 1 mps 753 mmHg 90%
    02:00 +15°C° 0 mm 1 mps 753 mmHg 90%
    03:00 +15°C° 0 mm 1 mps 753 mmHg 90%
    04:00 +15°C° 0 mm 2 mps 753 mmHg 91%
    05:00 +15°C° 0 mm 2 mps 753 mmHg 92%
    06:00 +16°C° 0 mm 2 mps 753 mmHg 89%
    07:00 +17°C° 0 mm 2 mps 753 mmHg 87%
    08:00 +19°C° 0 mm 2 mps 753 mmHg 84%
    09:00 +20°C° 0 mm 3 mps 753 mmHg 79%
    10:00 +21°C° 0 mm 3 mps 753 mmHg 73%
    11:00 +24°C° 0 mm 3 mps 753 mmHg 68%
    12:00 +24°C° 0 mm 3 mps 753 mmHg 64%
    13:00 +25°C° 0 mm 3 mps 753 mmHg 61%
    14:00 +25°C° 0 mm 3 mps 753 mmHg 57%
    15:00 +25°C° 0 mm 3 mps 753 mmHg 61%
    16:00 +25°C° 0 mm 2 mps 753 mmHg 65%
    17:00 +24°C° 0 mm 2 mps 752 mmHg 70%
    18:00 +21°C° 0 mm 2 mps 753 mmHg 75%
    19:00 +19°C° 0 mm 2 mps 753 mmHg 80%
    20:00 +17°C° 0 mm 2 mps 753 mmHg 85%
    21:00 +17°C° 0 mm 2 mps 753 mmHg 87%
    22:00 +16°C° 0 mm 2 mps 753 mmHg 90%
    23:00 +15°C° 0 mm 2 mps 754 mmHg 92%

    28 August, Wednesday

    Time Temperature Precipitation Wind Pressure Humidity
    00:00 +15°C° 0 mm 2 mps 754 mmHg 93%
    01:00 +14°C° 0 mm 2 mps 754 mmHg 93%
    02:00 +14°C° 0 mm 1 mps 754 mmHg 94%
    03:00 +13°C° 0 mm 2 mps 754 mmHg 94%
    04:00 +13°C° 0 mm 2 mps 754 mmHg 95%
    05:00 +12°C° 0 mm 2 mps 755 mmHg 95%
    06:00 +14°C° 0 mm 2 mps 755 mmHg 91%
    07:00 +15°C° 0 mm 2 mps 755 mmHg 86%
    08:00 +16°C° 0 mm 2 mps 755 mmHg 82%
    09:00 +17°C° 0 mm 2 mps 755 mmHg 76%
    10:00 +19°C° 0 mm 2 mps 755 mmHg 70%
    11:00 +20°C° 0 mm 3 mps 755 mmHg 64%
    12:00 +20°C° 0 mm 2 mps 755 mmHg 62%
    13:00 +21°C° 0 mm 2 mps 755 mmHg 59%
    14:00 +21°C° 0 mm 2 mps 755 mmHg 56%
    15:00 +21°C° 0 mm 2 mps 755 mmHg 59%
    16:00 +20°C° 0 mm 2 mps 754 mmHg 62%
    17:00 +20°C° 0 mm 2 mps 754 mmHg 66%
    18:00 +18°C° 0 mm 2 mps 754 mmHg 68%
    19:00 +16°C° 0 mm 2 mps 755 mmHg 71%
    20:00 +14°C° 0 mm 2 mps 755 mmHg 74%
    21:00 +14°C° 0 mm 2 mps 755 mmHg 76%
    22:00 +13°C° 0 mm 2 mps 755 mmHg 79%
    23:00 +12°C° 0 mm 2 mps 755 mmHg 82%
    Show more